Location: Croydon
(51.3762°N, 0.0982°W)
Time: 23:43:24
(UTC+00:00)

Explorer 7 - Visible Passes

Search period start: 13 November 2019 00:00
Search period end: 23 November 2019 00:00
Orbit: 485 x 680 km, 50.3° (Epoch: 13 November)

Date Brightness Start Highest point End Pass type
(mag) Time Alt. Az. Time Alt. Az. Time Alt. Az.
13 Nov 9.3 03:43:46 19° E 03:43:46 19° E 03:45:04 10° E visible
13 Nov 6.7 05:20:06 39° W 05:21:30 78° S 05:25:26 10° E visible
14 Nov 9.2 03:48:37 21° E 03:48:37 21° E 03:50:02 10° E visible
14 Nov 6.7 05:24:57 37° W 05:26:28 75° S 05:30:23 10° ESE visible
15 Nov 9.1 03:53:27 23° E 03:53:27 23° E 03:55:00 10° E visible
15 Nov 6.8 05:29:47 34° W 05:31:24 67° SSW 05:35:18 10° ESE visible
16 Nov 9.0 03:58:18 24° E 03:58:18 24° E 03:59:58 10° E visible
16 Nov 7.0 05:34:37 31° W 05:36:20 56° SSW 05:40:10 10° ESE visible
17 Nov 8.9 04:03:09 25° E 04:03:09 25° E 04:04:55 10° E visible
17 Nov 7.3 05:39:28 27° WSW 05:41:12 44° SSW 05:44:57 10° SE visible
18 Nov 8.8 04:08:02 26° ESE 04:08:02 26° ESE 04:09:51 10° ESE visible
18 Nov 7.7 05:44:21 24° WSW 05:46:02 34° SSW 05:49:36 10° SE visible
19 Nov 8.7 04:12:57 26° ESE 04:12:57 26° ESE 04:14:45 10° ESE visible
19 Nov 8.1 05:49:17 20° WSW 05:50:48 25° SW 05:54:04 10° SSE visible
20 Nov 8.8 04:17:55 24° SE 04:17:55 24° SE 04:19:35 10° ESE visible
20 Nov 8.5 05:54:15 16° WSW 05:55:32 18° SW 05:58:14 10° S visible
21 Nov 8.9 04:22:56 20° SE 04:22:56 20° SE 04:24:21 10° SE visible
21 Nov 8.9 05:59:17 11° WSW 06:00:11 12° SW 06:01:49 10° SSW visible
22 Nov 9.2 04:28:02 15° SSE 04:28:02 15° SSE 04:28:56 10° SSE visible
